Regional Weather Roundup
Issued by NWS Charleston, WV

Home | Current Version | Previous Version | Graphics & Text | Print | Product List | Glossary On
Versions: 1 2 3 4 5 6 7 8 9 10 11 12 13 14 15 16 17 18 19 20 21 22 23 24 25 26 27 28 29 30 31 32 33 34 35 36 37 38 39 40 41 42 43 44 45 46 47 48 49 50
000
ASUS41 KRLX 162210
RWRRLX
West Virginia Regional Weather Roundup
National Weather Service Charleston WV
600 PM EDT TUE SEP 16 2014

Note: "fair" indicates few or no clouds below 12,000 feet with no
significant weather and/or obstructions to visibility.

WVZ003-162300-
Northern Panhandle of West Virginia

CITY           SKY/WX    TMP DP  RH WIND       PRES   REMARKS
WHEELING       PTSUNNY   64  50  60 N5        30.07F
$$

WVZ009-162300-
Northwest West Virginia

CITY           SKY/WX    TMP DP  RH WIND       PRES   REMARKS
PARKERSBURG    PTSUNNY   69  51  52 CALM      30.09F
$$

WVZ006-162300-
Western West Virginia

CITY           SKY/WX    TMP DP  RH WIND       PRES   REMARKS
HUNTINGTON     CLOUDY    62  56  80 N5        30.08F
$$

WVZ015-162300-
West Central West Virginia

CITY           SKY/WX    TMP DP  RH WIND       PRES   REMARKS
CHARLESTON     CLOUDY    64  57  78 CALM      30.07F
$$

WVZ031-162300-
North Central West Virginia

CITY           SKY/WX    TMP DP  RH WIND       PRES   REMARKS
CLARKSBURG     MOSUNNY   67  49  52 N3        30.07S
MORGANTOWN     MOSUNNY   69  47  45 NW3       30.09S
$$

WVZ035-042-045-162300-
South Central West Virginia

CITY           SKY/WX    TMP DP  RH WIND       PRES   REMARKS
BECKLEY        CLOUDY    61  55  81 N10       30.09S
BLUEFIELD      MOSUNNY   68  55  63 NW6       30.08F
LEWISBURG      MOSUNNY   68  54  61 N6        30.07S
$$

WVZ047-162300-
Northern Mountains of West Virginia

CITY           SKY/WX    TMP DP  RH WIND       PRES   REMARKS
ELKINS         CLOUDY    63  50  62 W5        30.09F
$$

WVZ052-162300-
Eastern Panhandle of West Virginia

CITY           SKY/WX    TMP DP  RH WIND       PRES   REMARKS
MARTINSBURG    PTSUNNY   73  46  38 N6        30.03R
PETERSBURG     PTSUNNY   71  46  40 W9        30.04S
$$



USA.gov is the U.S. government's official web portal to all federal, state and local government web resources and services.